SAV18AX FMMI-FIMP

Flight info

Callsign SAV18AX
Flight time 1h 32m
Altitude 37000
Route PIPRI1E TE UA400 RASMA RASMA2E
Aircraft A320/M-SDE3FGHIRWY/LB1

Departure

Time 2026-04-21 14:53
Airport Ivato International Airport (FMMI)

Arrival

Time 2026-04-21 16:26
Airport Sir Seewoosagur Ramgoolam International Airport (FIMP)
Time Latitude Longitude Altitude Speed Heading
2026-04-21 14:40 -18.79985 47.47907 4165 ft 0 kts 190°
2026-04-21 14:44 -18.79983 47.47907 4165 ft 2 kts 190°
2026-04-21 14:44 -18.79966 47.47910 4165 ft 3 kts 190°
2026-04-21 14:45 -18.79949 47.47913 4165 ft 3 kts 190°
2026-04-21 14:45 -18.79931 47.47917 4165 ft 3 kts 190°
2026-04-21 14:45 -18.79914 47.47920 4165 ft 3 kts 190°
2026-04-21 14:45 -18.79897 47.47923 4165 ft 3 kts 171°
2026-04-21 14:46 -18.79880 47.47917 4165 ft 3 kts 134°
2026-04-21 14:46 -18.79870 47.47901 4165 ft 2 kts 104°
2026-04-21 14:46 -18.79869 47.47897 4165 ft 0 kts 104°
2026-04-21 14:48 -18.79871 47.47904 4165 ft 5 kts 103°
2026-04-21 14:48 -18.79878 47.47966 4165 ft 10 kts 97°
2026-04-21 14:48 -18.79886 47.48045 4165 ft 12 kts 84°
2026-04-21 14:49 -18.79827 47.48106 4165 ft 13 kts 16°
2026-04-21 14:49 -18.79738 47.48086 4165 ft 14 kts 309°
2026-04-21 14:49 -18.79711 47.47981 4165 ft 16 kts 277°
2026-04-21 14:49 -18.79699 47.47863 4165 ft 17 kts 281°
2026-04-21 14:50 -18.79677 47.47736 4165 ft 18 kts 281°
2026-04-21 14:50 -18.79650 47.47599 4165 ft 20 kts 281°
2026-04-21 14:50 -18.79624 47.47449 4165 ft 21 kts 278°
2026-04-21 14:50 -18.79602 47.47289 4165 ft 23 kts 278°
2026-04-21 14:51 -18.79579 47.47118 4165 ft 24 kts 279°
2026-04-21 14:51 -18.79550 47.46937 4165 ft 26 kts 280°
2026-04-21 14:51 -18.79519 47.46744 4165 ft 27 kts 279°
2026-04-21 14:51 -18.79492 47.46556 4165 ft 17 kts 278°
2026-04-21 14:52 -18.79453 47.46484 4165 ft 12 kts 314°
2026-04-21 14:52 -18.79475 47.46457 4165 ft 8 kts 136°
2026-04-21 14:52 -18.79484 47.46516 4165 ft 9 kts 87°
2026-04-21 14:52 -18.79506 47.46660 4165 ft 48 kts 100°
2026-04-21 14:53 -18.79596 47.47242 4165 ft 110 kts 99°
2026-04-21 14:53 -18.79753 47.48232 4171 ft 158 kts 94°
2026-04-21 14:53 -18.79897 47.49351 4859 ft 150 kts 99°
2026-04-21 14:53 -18.80056 47.50421 5624 ft 148 kts 100°
2026-04-21 14:54 -18.80220 47.51493 6177 ft 155 kts 100°
2026-04-21 14:54 -18.80407 47.52707 6441 ft 177 kts 101°
2026-04-21 14:54 -18.80616 47.54079 6677 ft 201 kts 100°
2026-04-21 14:54 -18.80886 47.55625 6963 ft 227 kts 103°
2026-04-21 14:55 -18.81251 47.57336 7359 ft 251 kts 103°
2026-04-21 14:55 -18.81665 47.59187 7954 ft 265 kts 104°
2026-04-21 14:55 -18.82097 47.61118 8727 ft 273 kts 103°
2026-04-21 14:55 -18.82537 47.63089 9527 ft 279 kts 103°
2026-04-21 14:56 -18.82983 47.65102 10295 ft 285 kts 103°
2026-04-21 14:56 -18.83446 47.67213 10591 ft 307 kts 103°
2026-04-21 14:56 -18.83944 47.69489 10872 ft 326 kts 103°
2026-04-21 14:56 -18.84459 47.71848 11469 ft 332 kts 103°
2026-04-21 14:57 -18.84977 47.74233 12128 ft 336 kts 103°
2026-04-21 14:57 -18.85502 47.76653 12802 ft 339 kts 103°
2026-04-21 14:57 -18.86034 47.79094 13435 ft 343 kts 103°
2026-04-21 14:57 -18.86572 47.81566 14072 ft 347 kts 104°
2026-04-21 14:58 -18.87113 47.84059 14639 ft 350 kts 103°
2026-04-21 14:58 -18.87658 47.86570 15226 ft 352 kts 104°
2026-04-21 14:58 -18.88209 47.89112 15801 ft 355 kts 104°
2026-04-21 14:58 -18.88762 47.91657 16379 ft 358 kts 104°
2026-04-21 14:59 -18.89313 47.94238 16967 ft 361 kts 103°
2026-04-21 14:59 -18.89858 47.96828 17543 ft 364 kts 103°
2026-04-21 14:59 -18.90404 47.99452 18135 ft 366 kts 103°
2026-04-21 14:59 -18.90951 48.02094 18686 ft 369 kts 103°
2026-04-21 15:00 -18.91500 48.04742 19197 ft 371 kts 103°
2026-04-21 15:00 -18.92059 48.07423 19715 ft 374 kts 104°
2026-04-21 15:00 -18.92622 48.10117 20258 ft 376 kts 104°
2026-04-21 15:00 -18.93188 48.12818 20780 ft 379 kts 104°
2026-04-21 15:01 -18.93760 48.15552 21309 ft 382 kts 104°
2026-04-21 15:01 -18.94334 48.18296 21841 ft 385 kts 104°
2026-04-21 15:01 -18.94914 48.21065 22353 ft 388 kts 104°
2026-04-21 15:01 -18.95497 48.23889 22868 ft 391 kts 103°
2026-04-21 15:02 -18.96038 48.26715 23383 ft 394 kts 103°
2026-04-21 15:02 -18.96549 48.29530 23843 ft 396 kts 103°
2026-04-21 15:02 -18.97057 48.32397 24257 ft 399 kts 103°
2026-04-21 15:02 -18.97576 48.35327 24663 ft 402 kts 103°
2026-04-21 15:03 -18.98096 48.38237 25063 ft 404 kts 103°
2026-04-21 15:03 -18.98621 48.41164 25443 ft 407 kts 103°
2026-04-21 15:03 -18.99154 48.44107 25845 ft 409 kts 104°
2026-04-21 15:03 -18.99695 48.47074 26229 ft 411 kts 104°
2026-04-21 15:04 -19.00236 48.50045 26614 ft 414 kts 104°
2026-04-21 15:04 -19.00782 48.53040 26978 ft 416 kts 104°
2026-04-21 15:04 -19.01333 48.56052 27352 ft 419 kts 104°
2026-04-21 15:04 -19.01884 48.59081 27713 ft 421 kts 104°
2026-04-21 15:05 -19.02435 48.62123 28084 ft 423 kts 104°
2026-04-21 15:05 -19.03542 48.68267 28820 ft 428 kts 104°
2026-04-21 15:05 -19.04103 48.71364 29169 ft 430 kts 104°
2026-04-21 15:06 -19.04668 48.74478 29537 ft 433 kts 105°
2026-04-21 15:06 -19.05236 48.77612 29902 ft 435 kts 105°
2026-04-21 15:06 -19.05807 48.80769 30250 ft 438 kts 105°
2026-04-21 15:06 -19.06376 48.83931 30557 ft 440 kts 105°
2026-04-21 15:07 -19.06944 48.87113 30865 ft 441 kts 105°
2026-04-21 15:07 -19.07513 48.90311 31172 ft 443 kts 105°
2026-04-21 15:07 -19.08085 48.93515 31472 ft 444 kts 105°
2026-04-21 15:07 -19.08656 48.96718 31865 ft 443 kts 106°
2026-04-21 15:08 -19.09222 48.99903 32320 ft 441 kts 106°
2026-04-21 15:08 -19.09791 49.03089 32779 ft 438 kts 107°
2026-04-21 15:08 -19.10355 49.06236 33227 ft 436 kts 107°
2026-04-21 15:08 -19.10914 49.09382 33706 ft 434 kts 107°
2026-04-21 15:09 -19.11468 49.12512 34163 ft 432 kts 107°
2026-04-21 15:09 -19.12018 49.15618 34564 ft 430 kts 107°
2026-04-21 15:09 -19.12575 49.18756 34944 ft 428 kts 107°
2026-04-21 15:09 -19.13123 49.21842 35311 ft 427 kts 107°
2026-04-21 15:10 -19.13673 49.24941 35670 ft 426 kts 107°
2026-04-21 15:10 -19.14210 49.27976 36008 ft 426 kts 107°
2026-04-21 15:10 -19.14761 49.31087 36356 ft 425 kts 107°
2026-04-21 15:10 -19.15307 49.34152 36697 ft 424 kts 107°
2026-04-21 15:11 -19.15852 49.37207 36989 ft 424 kts 107°
2026-04-21 15:11 -19.16395 49.40268 37057 ft 423 kts 107°
2026-04-21 15:11 -19.17472 49.46387 37063 ft 422 kts 107°
2026-04-21 15:12 -19.18539 49.52487 37062 ft 422 kts 107°
2026-04-21 15:12 -19.19607 49.58595 37062 ft 422 kts 107°
2026-04-21 15:13 -19.20681 49.64691 37063 ft 422 kts 107°
2026-04-21 15:13 -19.21755 49.70787 37083 ft 422 kts 107°
2026-04-21 15:14 -19.22816 49.76891 37074 ft 422 kts 107°
2026-04-21 15:14 -19.23879 49.83002 37079 ft 422 kts 107°
2026-04-21 15:15 -19.24937 49.89110 37093 ft 422 kts 107°
2026-04-21 15:15 -19.25998 49.95205 37086 ft 422 kts 107°
2026-04-21 15:16 -19.27066 50.01349 37078 ft 422 kts 107°
2026-04-21 15:16 -19.28118 50.07464 37093 ft 421 kts 107°
2026-04-21 15:17 -19.29160 50.13557 37086 ft 421 kts 107°
2026-04-21 15:17 -19.30214 50.19658 37080 ft 421 kts 107°
2026-04-21 15:18 -19.31087 50.24727 37088 ft 421 kts 107°
2026-04-21 15:18 -19.32130 50.30823 37081 ft 421 kts 107°
2026-04-21 15:19 -19.33166 50.36915 37092 ft 421 kts 107°
2026-04-21 15:19 -19.34203 50.43020 37083 ft 420 kts 107°
2026-04-21 15:20 -19.35246 50.49107 37095 ft 420 kts 107°
2026-04-21 15:20 -19.36283 50.55191 37079 ft 420 kts 107°
2026-04-21 15:21 -19.37306 50.61282 37079 ft 420 kts 107°
2026-04-21 15:21 -19.38333 50.67364 37080 ft 419 kts 107°
2026-04-21 15:22 -19.39367 50.73477 37081 ft 419 kts 107°
2026-04-21 15:22 -19.40385 50.79519 37077 ft 419 kts 107°
2026-04-21 15:23 -19.41415 50.85630 37081 ft 419 kts 107°
2026-04-21 15:23 -19.42430 50.91716 37084 ft 419 kts 107°
2026-04-21 15:24 -19.43437 50.97797 37084 ft 419 kts 107°
2026-04-21 15:24 -19.44448 51.03875 37082 ft 419 kts 107°
2026-04-21 15:25 -19.45474 51.09947 37083 ft 419 kts 107°
2026-04-21 15:25 -19.46490 51.16024 37082 ft 419 kts 107°
2026-04-21 15:26 -19.47492 51.22105 37083 ft 418 kts 107°
2026-04-21 15:26 -19.48495 51.28175 37080 ft 418 kts 107°
2026-04-21 15:27 -19.49498 51.34249 37085 ft 418 kts 107°
2026-04-21 15:27 -19.50495 51.40326 37084 ft 418 kts 107°
2026-04-21 15:28 -19.51491 51.46400 37081 ft 418 kts 107°
2026-04-21 15:28 -19.52501 51.52516 37080 ft 418 kts 107°
2026-04-21 15:29 -19.53497 51.58578 37082 ft 418 kts 107°
2026-04-21 15:29 -19.54487 51.64659 37083 ft 418 kts 107°
2026-04-21 15:30 -19.55471 51.70736 37086 ft 418 kts 107°
2026-04-21 15:30 -19.56461 51.76815 37084 ft 418 kts 107°
2026-04-21 15:31 -19.57443 51.82891 37084 ft 418 kts 107°
2026-04-21 15:31 -19.58432 51.88956 37086 ft 418 kts 107°
2026-04-21 15:32 -19.59422 51.95029 37086 ft 418 kts 107°
2026-04-21 15:32 -19.60405 52.01099 37082 ft 417 kts 107°
2026-04-21 15:33 -19.61375 52.07166 37083 ft 417 kts 107°
2026-04-21 15:33 -19.62342 52.13228 37080 ft 417 kts 107°
2026-04-21 15:34 -19.63312 52.19301 37076 ft 417 kts 107°
2026-04-21 15:34 -19.64289 52.25409 37082 ft 417 kts 107°
2026-04-21 15:35 -19.65252 52.31436 37082 ft 417 kts 107°
2026-04-21 15:35 -19.66226 52.37549 37084 ft 418 kts 107°
2026-04-21 15:36 -19.67190 52.43595 37084 ft 418 kts 107°
2026-04-21 15:36 -19.68158 52.49706 37085 ft 418 kts 107°
2026-04-21 15:37 -19.69118 52.55800 37081 ft 418 kts 107°
2026-04-21 15:37 -19.70077 52.61882 37080 ft 418 kts 107°
2026-04-21 15:38 -19.71030 52.67973 37083 ft 418 kts 107°
2026-04-21 15:38 -19.71988 52.74069 37080 ft 419 kts 107°
2026-04-21 15:39 -19.72940 52.80167 37079 ft 419 kts 107°
2026-04-21 15:39 -19.73897 52.86260 37080 ft 419 kts 107°
2026-04-21 15:40 -19.74854 52.92361 37080 ft 419 kts 107°
2026-04-21 15:40 -19.75805 52.98476 37080 ft 420 kts 106°
2026-04-21 15:41 -19.76745 53.04590 37081 ft 420 kts 106°
2026-04-21 15:41 -19.77686 53.10717 37080 ft 421 kts 106°
2026-04-21 15:42 -19.78638 53.16851 37080 ft 421 kts 106°
2026-04-21 15:42 -19.79602 53.23035 37066 ft 430 kts 106°
2026-04-21 15:43 -19.80581 53.29371 37062 ft 428 kts 106°
2026-04-21 15:43 -19.81519 53.35556 37065 ft 422 kts 106°
2026-04-21 15:44 -19.82461 53.41706 37475 ft 422 kts 106°
2026-04-21 15:44 -19.82930 53.44783 37809 ft 421 kts 106°
2026-04-21 15:44 -19.83397 53.47855 38136 ft 421 kts 106°
2026-04-21 15:45 -19.83864 53.50917 38444 ft 420 kts 106°
2026-04-21 15:45 -19.84332 53.53971 38726 ft 420 kts 106°
2026-04-21 15:45 -19.84801 53.57035 38951 ft 420 kts 105°
2026-04-21 15:45 -19.85269 53.60108 39043 ft 422 kts 105°
2026-04-21 15:46 -19.86201 53.66258 39070 ft 422 kts 105°
2026-04-21 15:46 -19.87125 53.72400 39072 ft 421 kts 105°
2026-04-21 15:47 -19.88052 53.78553 39071 ft 423 kts 105°
2026-04-21 15:47 -19.88985 53.84733 39070 ft 424 kts 105°
2026-04-21 15:48 -19.89920 53.90927 39073 ft 425 kts 105°
2026-04-21 15:48 -19.90847 53.97145 39071 ft 426 kts 104°
2026-04-21 15:49 -19.91771 54.03361 39081 ft 427 kts 105°
2026-04-21 15:49 -19.92702 54.09599 39073 ft 428 kts 104°
2026-04-21 15:50 -19.93633 54.15861 39073 ft 429 kts 104°
2026-04-21 15:50 -19.94563 54.22138 39075 ft 430 kts 104°
2026-04-21 15:51 -19.95341 54.27403 39079 ft 431 kts 104°
2026-04-21 15:51 -19.96274 54.33701 39075 ft 432 kts 104°
2026-04-21 15:52 -19.97204 54.40022 39069 ft 433 kts 104°
2026-04-21 15:52 -19.98134 54.46366 39076 ft 435 kts 103°
2026-04-21 15:53 -19.99063 54.52726 39071 ft 436 kts 103°
2026-04-21 15:53 -19.99997 54.59099 39064 ft 437 kts 103°
2026-04-21 15:54 -20.00933 54.65495 39066 ft 438 kts 103°
2026-04-21 15:54 -20.01868 54.71904 39067 ft 440 kts 103°
2026-04-21 15:55 -20.02802 54.78341 39073 ft 441 kts 103°
2026-04-21 15:55 -20.03736 54.84842 39075 ft 442 kts 102°
2026-04-21 15:56 -20.04666 54.91318 39079 ft 443 kts 102°
2026-04-21 15:56 -20.05593 54.97794 39078 ft 444 kts 102°
2026-04-21 15:57 -20.06528 55.04301 39088 ft 445 kts 102°
2026-04-21 15:57 -20.07462 55.10815 39081 ft 445 kts 102°
2026-04-21 15:58 -20.08388 55.17325 39084 ft 446 kts 102°
2026-04-21 15:58 -20.09322 55.23856 39088 ft 446 kts 102°
2026-04-21 15:59 -20.10245 55.30371 39081 ft 447 kts 102°
2026-04-21 15:59 -20.11171 55.36918 39081 ft 447 kts 102°
2026-04-21 16:00 -20.11633 55.40187 38909 ft 448 kts 102°
2026-04-21 16:00 -20.12099 55.43481 38237 ft 450 kts 102°
2026-04-21 16:00 -20.12559 55.46742 37636 ft 440 kts 102°
2026-04-21 16:00 -20.13009 55.49959 37012 ft 440 kts 102°
2026-04-21 16:01 -20.13460 55.53196 36318 ft 443 kts 102°
2026-04-21 16:01 -20.13902 55.56446 35607 ft 446 kts 102°
2026-04-21 16:01 -20.14337 55.59725 34842 ft 449 kts 102°
2026-04-21 16:01 -20.14774 55.63064 34066 ft 451 kts 102°
2026-04-21 16:02 -20.15193 55.66310 33565 ft 446 kts 102°
2026-04-21 16:02 -20.15609 55.69562 33031 ft 441 kts 102°
2026-04-21 16:02 -20.16029 55.72823 32499 ft 437 kts 102°
2026-04-21 16:02 -20.16442 55.76010 31973 ft 433 kts 102°
2026-04-21 16:03 -20.16855 55.79158 31455 ft 429 kts 103°
2026-04-21 16:03 -20.17269 55.82300 30926 ft 426 kts 103°
2026-04-21 16:03 -20.17675 55.85396 30406 ft 422 kts 103°
2026-04-21 16:03 -20.18077 55.88482 29842 ft 419 kts 102°
2026-04-21 16:04 -20.18475 55.91546 29326 ft 414 kts 102°
2026-04-21 16:04 -20.18865 55.94556 28822 ft 409 kts 102°
2026-04-21 16:04 -20.19251 55.97535 28333 ft 405 kts 102°
2026-04-21 16:04 -20.19634 56.00494 27851 ft 401 kts 102°
2026-04-21 16:05 -20.19974 56.03433 27369 ft 400 kts 97°
2026-04-21 16:05 -20.20018 56.06402 26918 ft 399 kts 94°
2026-04-21 16:05 -20.20023 56.09341 26447 ft 397 kts 94°
2026-04-21 16:05 -20.20026 56.12284 26002 ft 396 kts 94°
2026-04-21 16:06 -20.20031 56.15201 25564 ft 394 kts 94°
2026-04-21 16:06 -20.20036 56.18122 25128 ft 393 kts 93°
2026-04-21 16:06 -20.20042 56.21030 24699 ft 392 kts 93°
2026-04-21 16:06 -20.20047 56.23928 24268 ft 391 kts 93°
2026-04-21 16:07 -20.20051 56.26828 23815 ft 391 kts 93°
2026-04-21 16:07 -20.20055 56.29708 23321 ft 390 kts 93°
2026-04-21 16:07 -20.20057 56.32589 22840 ft 388 kts 93°
2026-04-21 16:07 -20.20061 56.35460 22385 ft 385 kts 93°
2026-04-21 16:08 -20.20070 56.41123 21429 ft 381 kts 93°
2026-04-21 16:08 -20.20072 56.43933 20941 ft 379 kts 92°
2026-04-21 16:08 -20.20073 56.46726 20440 ft 377 kts 93°
2026-04-21 16:09 -20.20074 56.49503 19953 ft 375 kts 93°
2026-04-21 16:09 -20.20075 56.52271 19464 ft 373 kts 92°
2026-04-21 16:09 -20.20074 56.55060 18966 ft 371 kts 92°
2026-04-21 16:09 -20.20072 56.57775 18479 ft 370 kts 92°
2026-04-21 16:10 -20.20071 56.60507 17947 ft 369 kts 92°
2026-04-21 16:10 -20.20069 56.63230 17442 ft 365 kts 92°
2026-04-21 16:10 -20.20064 56.65951 16951 ft 362 kts 92°
2026-04-21 16:10 -20.20060 56.68620 16472 ft 359 kts 91°
2026-04-21 16:11 -20.20055 56.71258 15991 ft 356 kts 91°
2026-04-21 16:11 -20.20052 56.73878 15506 ft 353 kts 91°
2026-04-21 16:11 -20.20049 56.76488 15028 ft 351 kts 91°
2026-04-21 16:11 -20.20046 56.79069 14548 ft 348 kts 91°
2026-04-21 16:12 -20.20045 56.80773 14234 ft 347 kts 91°
2026-04-21 16:12 -20.20044 56.84203 13561 ft 344 kts 91°
2026-04-21 16:12 -20.20043 56.86733 13076 ft 341 kts 91°
2026-04-21 16:12 -20.20040 56.89245 12603 ft 337 kts 90°
2026-04-21 16:13 -20.20031 56.91724 12133 ft 334 kts 90°
2026-04-21 16:13 -20.20021 56.94184 11660 ft 330 kts 90°
2026-04-21 16:13 -20.20013 56.96619 11207 ft 328 kts 90°
2026-04-21 16:13 -20.20009 56.99028 10746 ft 325 kts 90°
2026-04-21 16:14 -20.20004 57.01439 10305 ft 323 kts 90°
2026-04-21 16:14 -20.19998 57.03763 10163 ft 304 kts 90°
2026-04-21 16:14 -20.19992 57.05945 9832 ft 287 kts 90°
2026-04-21 16:14 -20.19986 57.08028 9576 ft 280 kts 90°
2026-04-21 16:15 -20.19980 57.10100 9323 ft 280 kts 90°
2026-04-21 16:15 -20.19974 57.12164 8960 ft 279 kts 90°
2026-04-21 16:15 -20.19968 57.14225 8581 ft 278 kts 90°
2026-04-21 16:15 -20.19962 57.16282 8212 ft 277 kts 90°
2026-04-21 16:16 -20.19955 57.18330 7852 ft 277 kts 90°
2026-04-21 16:16 -20.19947 57.20376 7545 ft 274 kts 90°
2026-04-21 16:16 -20.19938 57.22384 7118 ft 269 kts 90°
2026-04-21 16:16 -20.19929 57.24374 6732 ft 270 kts 90°
2026-04-21 16:17 -20.19959 57.26371 6358 ft 268 kts 96°
2026-04-21 16:17 -20.20419 57.28282 6097 ft 263 kts 113°
2026-04-21 16:17 -20.21350 57.29951 6079 ft 263 kts 124°
2026-04-21 16:17 -20.22413 57.31538 5841 ft 265 kts 124°
2026-04-21 16:18 -20.23467 57.33119 5510 ft 263 kts 124°
2026-04-21 16:18 -20.24529 57.34715 5289 ft 259 kts 124°
2026-04-21 16:18 -20.25563 57.36272 5135 ft 256 kts 124°
2026-04-21 16:18 -20.26574 57.37795 5025 ft 246 kts 124°
2026-04-21 16:19 -20.27540 57.39252 4918 ft 236 kts 123°
2026-04-21 16:19 -20.28471 57.40644 4822 ft 226 kts 124°
2026-04-21 16:19 -20.29364 57.41961 4727 ft 215 kts 124°
2026-04-21 16:19 -20.30218 57.43216 4628 ft 202 kts 124°
2026-04-21 16:20 -20.31031 57.44413 4544 ft 195 kts 124°
2026-04-21 16:20 -20.31804 57.45550 4453 ft 185 kts 124°
2026-04-21 16:20 -20.32522 57.46668 4351 ft 181 kts 118°
2026-04-21 16:20 -20.33119 57.47847 4239 ft 180 kts 115°
2026-04-21 16:21 -20.33695 57.49030 4149 ft 179 kts 115°
2026-04-21 16:21 -20.34265 57.50209 4070 ft 178 kts 115°
2026-04-21 16:21 -20.34820 57.51354 3872 ft 171 kts 115°
2026-04-21 16:21 -20.35363 57.52479 3613 ft 170 kts 114°
2026-04-21 16:22 -20.35727 57.53233 3446 ft 168 kts 114°
2026-04-21 16:22 -20.36430 57.54688 3115 ft 166 kts 114°
2026-04-21 16:22 -20.36961 57.55787 2865 ft 167 kts 114°
2026-04-21 16:22 -20.37482 57.56866 2618 ft 159 kts 114°
2026-04-21 16:23 -20.37962 57.57859 2399 ft 142 kts 114°
2026-04-21 16:23 -20.38400 57.58765 2176 ft 135 kts 114°
2026-04-21 16:23 -20.38821 57.59639 1977 ft 131 kts 115°
2026-04-21 16:23 -20.39233 57.60493 1778 ft 129 kts 116°
2026-04-21 16:24 -20.39642 57.61342 1600 ft 129 kts 115°
2026-04-21 16:24 -20.40051 57.62189 1390 ft 128 kts 115°
2026-04-21 16:24 -20.40327 57.62763 1254 ft 128 kts 115°
2026-04-21 16:24 -20.40720 57.63618 1029 ft 129 kts 114°
2026-04-21 16:25 -20.41147 57.64467 742 ft 130 kts 119°
2026-04-21 16:25 -20.41550 57.65337 577 ft 130 kts 116°
2026-04-21 16:25 -20.41980 57.66198 396 ft 132 kts 116°
2026-04-21 16:25 -20.42392 57.67065 264 ft 131 kts 118°
2026-04-21 16:26 -20.42798 57.67913 176 ft 119 kts 117°
2026-04-21 16:26 -20.43069 57.68463 153 ft 25 kts 117°
2026-04-21 16:26 -20.43151 57.68637 151 ft 31 kts 118°
2026-04-21 16:26 -20.43262 57.68849 147 ft 34 kts 118°
2026-04-21 16:27 -20.43387 57.69110 120 ft 45 kts 117°
2026-04-21 16:27 -20.43493 57.69327 117 ft 14 kts 116°
2026-04-21 16:27 -20.43592 57.69345 114 ft 20 kts 207°
2026-04-21 16:27 -20.43643 57.69258 109 ft 15 kts 287°
2026-04-21 16:28 -20.43603 57.69166 116 ft 12 kts 298°
2026-04-21 16:28 -20.43578 57.69110 122 ft 1 kts 295°
2026-04-21 16:28 -20.43574 57.69103 125 ft 6 kts 297°
2026-04-21 16:28 -20.43542 57.69038 128 ft 14 kts 297°
2026-04-21 16:29 -20.43495 57.68942 134 ft 17 kts 297°
2026-04-21 16:29 -20.43439 57.68827 139 ft 17 kts 297°
2026-04-21 16:29 -20.43386 57.68713 144 ft 17 kts 296°
2026-04-21 16:29 -20.43333 57.68598 148 ft 17 kts 296°
2026-04-21 16:30 -20.43279 57.68490 153 ft 15 kts 298°
2026-04-21 16:30 -20.43228 57.68389 157 ft 15 kts 300°
2026-04-21 16:30 -20.43173 57.68290 161 ft 15 kts 298°
2026-04-21 16:30 -20.43129 57.68188 165 ft 15 kts 293°
2026-04-21 16:31 -20.43082 57.68088 169 ft 15 kts 298°
2026-04-21 16:31 -20.43033 57.67991 173 ft 15 kts 298°
2026-04-21 16:31 -20.42985 57.67894 177 ft 15 kts 298°
2026-04-21 16:31 -20.42948 57.67810 181 ft 10 kts 274°
2026-04-21 16:32 -20.42999 57.67762 181 ft 12 kts 206°
2026-04-21 16:32 -20.43066 57.67719 181 ft 10 kts 210°
2026-04-21 16:32 -20.43099 57.67708 181 ft 0 kts 196°